Location: Catacaguana
(10.4120°N, 66.7591°W)
Time: 05:27:06
(UTC+00:00)

CZ-2C R/B - Pass Details

Date: 27 May 2022
Orbit: 381 x 549 km, 35.0° (Epoch: 26 June)

Event Time Altitude Azimuth Distance (km) Brightness Sun altitude
Exits shadow 07:48:04 10° 24° (NNE) 1,485 4.2 -30.8°
Drops below altitude 10° 07:48:04 10° 25° (NNE) 1,486 4.2 -30.8°
Sets 07:50:31 0° 39° (NE) 2,384 5.6 -30.2°
